BAW126P EHRD-EGCC

Flight info

Callsign BAW126P
Flight time N/A
Altitude 36000
Route ABNED L980 LAM UN57 WELIN T420 TNT
Aircraft A20N/M-SDE2E3FGHIRWXY/LB1

Departure

Time 2026-05-07 15:30
Airport Rotterdam The Hague Airport (EHRD)

Arrival

Time N/A
Airport Manchester Airport (EGCC)
Time Latitude Longitude Altitude Speed Heading
2026-05-07 14:49 51.94967 4.43637 0 ft 0 kts 327°
2026-05-07 15:21 51.94973 4.43630 0 ft 3 kts 327°
2026-05-07 15:22 51.94993 4.43626 0 ft 3 kts 15°
2026-05-07 15:22 51.95022 4.43647 0 ft 6 kts 16°
2026-05-07 15:22 51.95062 4.43622 0 ft 7 kts 329°
2026-05-07 15:22 51.95116 4.43571 0 ft 10 kts 330°
2026-05-07 15:23 51.95182 4.43500 0 ft 13 kts 326°
2026-05-07 15:23 51.95201 4.43478 0 ft 0 kts 326°
2026-05-07 15:25 51.95202 4.43478 0 ft 1 kts 326°
2026-05-07 15:25 51.95218 4.43460 0 ft 5 kts 326°
2026-05-07 15:26 51.95238 4.43415 0 ft 5 kts 265°
2026-05-07 15:26 51.95220 4.43342 0 ft 9 kts 242°
2026-05-07 15:26 51.95183 4.43246 0 ft 12 kts 237°
2026-05-07 15:26 51.95138 4.43112 0 ft 15 kts 245°
2026-05-07 15:27 51.95122 4.42951 0 ft 15 kts 298°
2026-05-07 15:27 51.95147 4.42913 1 ft 0 kts 325°
2026-05-07 15:27 51.95157 4.42901 1 ft 3 kts 325°
2026-05-07 15:28 51.95183 4.42872 1 ft 6 kts 325°
2026-05-07 15:28 51.95216 4.42864 2 ft 4 kts 24°
2026-05-07 15:28 51.95234 4.42890 2 ft 0 kts 52°
2026-05-07 15:29 51.95236 4.42895 2 ft 2 kts 52°
2026-05-07 15:29 51.95382 4.43249 0 ft 83 kts 57°
2026-05-07 15:29 51.95845 4.44396 6 ft 155 kts 55°
2026-05-07 15:29 51.96447 4.46069 335 ft 189 kts 58°
2026-05-07 15:30 51.97125 4.47934 1181 ft 201 kts 56°
2026-05-07 15:30 51.97886 4.49814 1741 ft 201 kts 54°
2026-05-07 15:30 51.98751 4.51731 1909 ft 222 kts 52°
2026-05-07 15:30 51.99732 4.54021 2014 ft 272 kts 55°
2026-05-07 15:31 52.00894 4.56775 2195 ft 318 kts 55°
2026-05-07 15:31 52.02233 4.59923 2455 ft 354 kts 55°
2026-05-07 15:31 52.03647 4.63237 3606 ft 362 kts 55°
2026-05-07 15:31 52.05135 4.66686 4065 ft 383 kts 55°
2026-05-07 15:32 52.06632 4.70142 3916 ft 366 kts 55°
2026-05-07 15:32 52.08081 4.73478 3320 ft 357 kts 55°
2026-05-07 15:32 52.09486 4.76735 2945 ft 344 kts 55°
2026-05-07 15:32 52.10807 4.79820 2940 ft 321 kts 55°
2026-05-07 15:33 52.12056 4.82676 2933 ft 299 kts 61°
2026-05-07 15:33 52.12648 4.85773 2940 ft 279 kts 86°
2026-05-07 15:33 52.12460 4.88797 2937 ft 261 kts 103°
2026-05-07 15:33 52.11719 4.91361 2943 ft 245 kts 122°
2026-05-07 15:34 52.10780 4.93580 2938 ft 231 kts 123°
2026-05-07 15:34 52.09885 4.95656 2938 ft 218 kts 123°
2026-05-07 15:34 52.09011 4.97710 2942 ft 223 kts 123°
2026-05-07 15:34 52.08137 4.99771 2940 ft 220 kts 123°
2026-05-07 15:35 52.07253 5.01814 2940 ft 222 kts 123°
2026-05-07 15:35 52.06369 5.03868 2936 ft 221 kts 123°
2026-05-07 15:35 52.05476 5.05905 2938 ft 222 kts 123°
2026-05-07 15:35 52.04581 5.07957 2942 ft 225 kts 123°
2026-05-07 15:36 52.03610 5.10140 2942 ft 256 kts 124°
2026-05-07 15:36 52.02545 5.12528 3228 ft 265 kts 124°